South Lake Tahoe, CA

6:58 AM PDT on April 25, 2017 (GMT -0700)
Lake Tahoe

Weather History for KTVL - February, 2015

Change the Weather History Date:

Sunday, February 8, 2015

  Actual Average Record
Temperature  
Mean Temperature 41 °F 30 °F  
Max Temperature 49 °F 43 °F 57 °F (1996)
Min Temperature 32 °F 17 °F -21 °F (1989)
Degree Days  
Heating Degree Days 24 35  
Month to date heating degree days 167 280  
Since 1 July heating degree days 3337 4562  
Cooling Degree Days 0 0  
Month to date cooling degree days 0 0  
Year to date cooling degree days 0 0  
Moisture  
Dew Point 35 °F    
Average Humidity 75    
Maximum Humidity 96    
Minimum Humidity 54    
Precipitation  
Precipitation 1.30 in - 3.73 in (1960)
Month to date precipitation 3.65  
Year to date precipitation 3.75  
Sea Level Pressure  
Sea Level Pressure 30.02 in    
Wind  
Wind Speed 7 mph (South)    
Max Wind Speed 26 mph    
Max Gust Speed 52 mph    
Visibility 4 miles    
Events Fog , Rain , Thunderstorm    
T = Trace of Precipitation, MM = Missing Value Source: NWS Daily Summary

Daily Weather History Graph

Daily Weather History Graph

Search for Another Location

Airport or City:

Trip Planner

Search our weather history database for the weather conditions in past years. The results will help you decide how hot, cold, wet, or windy it might be!

Date:

Astronomy

Feb. 08, 2015 Rise Set
Actual Time 6:59 AM PST 5:29 PM PST
Civil Twilight 6:31 AM PST 5:57 PM PST
Nautical Twilight 6:00 AM PST 6:28 PM PST
Astronomical Twilight 5:29 AM PST 6:59 PM PST
Moon 10:09 PM PST (2/8) 9:11 AM PST (2/8)
Length of Visible Light 11h 25m
Length of Day
10h 29m
Waning Gibbous, 80% of the Moon is Illuminated
Feb 8
Waning Gibbous
Feb 11
Last Quarter
Feb 18
New
Feb 25
First Quarter
Mar 5
Full

Hourly Weather History & Observations

Time (PST) Temp. Windchill Dew Point Humidity Pressure Visibility Wind Dir Wind Speed Gust Speed Precip Events Conditions
12:53 AM 37.0 °F - 33.1 °F 86% 30.11 in 5.0 mi Calm Calm - N/A   Partly Cloudy
1:01 AM 36.0 °F - 32.0 °F 86% 30.14 in 2.0 mi Calm Calm - N/A   Scattered Clouds
1:04 AM 36.0 °F - 32.0 °F 86% 30.15 in 1.0 mi Calm Calm - N/A   Mist
1:11 AM 36.0 °F - 32.0 °F 86% 30.15 in 0.5 mi Calm Calm - N/A Fog Fog
1:53 AM 34.0 °F - 30.0 °F 85% 30.12 in 0.8 mi Calm Calm - N/A   Mist
2:53 AM 33.1 °F 30.0 °F 28.9 °F 85% 30.12 in 0.2 mi South 3.5 mph - N/A Fog Fog
3:53 AM 33.1 °F 28.7 °F 28.9 °F 85% 30.09 in 0.2 mi South 4.6 mph - N/A Fog Fog
4:53 AM 32.0 °F 27.5 °F 28.9 °F 88% 30.12 in 0.8 mi South 4.6 mph - N/A   Mist
5:53 AM 33.1 °F - 28.9 °F 85% 30.12 in 1.0 mi Calm Calm - N/A   Mist
6:32 AM 32.0 °F - 28.9 °F 88% 30.14 in 3.0 mi Calm Calm - N/A   Overcast
6:50 AM 32.0 °F - 28.4 °F 87% 30.14 in 6.0 mi Calm Calm - N/A   Overcast
6:53 AM 32.0 °F - 28.9 °F 88% 30.13 in 6.0 mi Calm Calm - N/A   Overcast
7:27 AM 32.0 °F - 28.0 °F 85% 30.14 in 1.8 mi Calm Calm - N/A   Overcast
7:36 AM 32.0 °F - 28.9 °F 88% 30.13 in 0.5 mi Calm Calm - N/A Fog Fog
7:50 AM 32.0 °F - 28.4 °F 87% 30.13 in 1.0 mi Calm Calm - N/A   Overcast
7:53 AM 32.0 °F - 28.9 °F 88% 30.12 in 0.8 mi Calm Calm - N/A   Overcast
8:33 AM 34.0 °F - 30.9 °F 89% 30.11 in 1.2 mi Calm Calm - N/A   Overcast
8:42 AM 34.0 °F - 32.0 °F 92% 30.11 in 3.0 mi Calm Calm - N/A   Overcast
8:47 AM 33.8 °F 30.8 °F 32.0 °F 93% 30.11 in 1.5 mi ENE 3.5 mph - N/A   Overcast
8:53 AM 34.0 °F 31.0 °F 32.0 °F 92% 30.09 in 0.5 mi NE 3.5 mph - N/A Fog Fog
9:10 AM 39.0 °F 33.4 °F 35.1 °F 86% 30.11 in 2.0 mi NNE 8.1 mph - N/A   Mostly Cloudy
9:13 AM 39.0 °F 35.7 °F 35.1 °F 86% 30.11 in 5.0 mi Variable 4.6 mph - N/A   Mostly Cloudy
9:24 AM 41.0 °F 36.4 °F 36.0 °F 82% 30.11 in 10.0 mi NNE 6.9 mph - N/A   Scattered Clouds
9:53 AM 48.0 °F - 32.0 °F 54% 30.04 in 10.0 mi SW 11.5 mph 25.3 mph N/A   Mostly Cloudy
10:53 AM 43.0 °F 36.4 °F 36.0 °F 76% 30.06 in 8.0 mi SSW 12.7 mph 24.2 mph 0.03 in Rain Light Rain
11:53 AM 48.9 °F - 37.9 °F 66% 29.99 in 10.0 mi SSW 18.4 mph 28.8 mph 0.01 in   Overcast
12:18 PM 46.0 °F 42.5 °F 39.0 °F 76% 30.06 in 4.0 mi SSW 6.9 mph - 0.02 in Rain Light Rain
12:25 PM 46.0 °F 41.9 °F 37.9 °F 73% 30.06 in 7.0 mi SSW 8.1 mph 17.3 mph 0.03 in Rain Light Rain
12:53 PM 46.9 °F - 39.0 °F 74% 29.97 in 7.0 mi SSW 10.4 mph - 0.04 in Rain Light Rain
1:03 PM 46.9 °F - 39.0 °F 74% 30.02 in 4.0 mi SSW 8.1 mph 17.3 mph 0.02 in Rain Rain
1:26 PM 46.0 °F 41.0 °F 39.0 °F 76% 30.01 in 1.5 mi South 10.4 mph 20.7 mph 0.08 in Rain Rain
1:31 PM 46.0 °F 41.4 °F 39.0 °F 76% 30.01 in 3.0 mi SSW 9.2 mph - 0.09 in Rain Rain
1:42 PM 45.0 °F 41.2 °F 39.0 °F 80% 30.01 in 2.5 mi SSW 6.9 mph - 0.12 in Rain Rain
1:53 PM 45.0 °F 40.6 °F 39.0 °F 80% 29.95 in 3.0 mi South 8.1 mph - 0.13 in Rain Rain
2:01 PM 45.0 °F 42.6 °F 39.0 °F 80% 30.01 in 3.0 mi Variable 4.6 mph - 0.01 in Rain Light Rain
2:05 PM 45.0 °F 43.5 °F 39.9 °F 82% 30.01 in 2.5 mi SW 3.5 mph - 0.02 in Rain Rain
2:12 PM 46.0 °F 43.1 °F 39.9 °F 79% 30.03 in 3.0 mi Variable 5.8 mph - 0.03 in Rain Light Rain
2:25 PM 48.0 °F - 39.0 °F 71% 30.00 in 2.5 mi South 13.8 mph 33.4 mph 0.07 in Rain Rain
2:33 PM 46.9 °F - 39.0 °F 74% 29.99 in 2.5 mi Variable 6.9 mph 23.0 mph 0.09 in Rain Rain
2:35 PM 46.9 °F - 39.0 °F 74% 30.00 in 3.0 mi South 12.7 mph 23.0 mph 0.09 in Rain Rain
2:49 PM 46.4 °F 41.9 °F 39.2 °F 76% 30.01 in 1.8 mi South 9.2 mph - 0.14 in Rain Heavy Rain
2:53 PM 45.0 °F 39.7 °F 39.0 °F 80% 29.94 in 1.5 mi SSE 10.4 mph - 0.16 in Rain Heavy Rain
3:03 PM 45.0 °F 40.6 °F 39.0 °F 80% 29.98 in 3.0 mi South 8.1 mph - 0.01 in Rain Light Rain
3:23 PM 45.0 °F 40.1 °F 39.9 °F 82% 29.98 in 4.0 mi SSW 9.2 mph - 0.03 in Rain Light Rain
3:32 PM 46.0 °F 40.6 °F 39.9 °F 79% 29.96 in 9.0 mi South 11.5 mph - 0.03 in Rain Light Rain
3:53 PM 46.9 °F - 39.9 °F 77% 29.89 in 6.0 mi SSW 9.2 mph - 0.04 in Rain Light Rain
4:22 PM 46.9 °F - 41.0 °F 80% 29.95 in 4.0 mi SW 8.1 mph 18.4 mph 0.01 in Rain Light Rain
4:53 PM 46.0 °F 44.8 °F 41.0 °F 83% 29.89 in 6.0 mi Variable 3.5 mph - 0.04 in Rain Light Rain
5:03 PM 46.0 °F 43.9 °F 41.0 °F 83% 29.95 in 2.5 mi Variable 4.6 mph - 0.04 in Rain Heavy Rain
5:11 PM 46.9 °F - 39.9 °F 77% 29.93 in 1.8 mi Variable 3.5 mph - 0.09 in Rain Heavy Rain
5:18 PM 46.0 °F 44.8 °F 41.0 °F 83% 29.94 in 3.0 mi SSE 3.5 mph - 0.11 in Rain Rain
5:53 PM 46.0 °F 43.9 °F 39.9 °F 79% 29.86 in 4.0 mi SSE 4.6 mph - 0.18 in Rain Rain
6:34 PM 45.0 °F 40.1 °F 37.9 °F 76% 29.95 in 4.0 mi South 9.2 mph 23.0 mph 0.10 in Rain Rain
6:53 PM 44.1 °F 39.0 °F 37.9 °F 79% 29.91 in 3.0 mi South 9.2 mph - 0.13 in Rain Rain
7:07 PM 44.1 °F 40.8 °F 37.9 °F 79% 29.97 in 3.0 mi SW 5.8 mph - 0.05 in Rain , Thunderstorm Rain
7:09 PM 44.1 °F 41.5 °F 37.9 °F 79% 29.96 in 2.5 mi Variable 4.6 mph - 0.07 in Rain , Thunderstorm Heavy Thunderstorms and Rain
7:23 PM 43.0 °F - 37.9 °F 82% 29.96 in 3.0 mi Calm Calm - 0.13 in Rain Heavy Rain
7:36 PM 43.0 °F 39.5 °F 37.0 °F 80% 29.96 in 5.0 mi Variable 5.8 mph - 0.15 in Rain Rain
7:53 PM 42.1 °F 37.7 °F 36.0 °F 79% 29.87 in 7.0 mi SSE 6.9 mph - 0.15 in Rain Light Rain
8:06 PM 42.1 °F 40.2 °F 36.0 °F 79% 29.90 in 7.0 mi Variable 3.5 mph - 0.01 in Rain , Thunderstorm Light Rain
8:19 PM 43.0 °F 36.8 °F 37.0 °F 80% 29.97 in 2.5 mi SSW 11.5 mph 23.0 mph 0.07 in Rain , Thunderstorm Heavy Rain
8:29 PM 43.0 °F 37.7 °F 34.0 °F 71% 29.94 in 2.5 mi SSW 9.2 mph 21.9 mph 0.15 in Rain , Thunderstorm Rain
8:33 PM 43.0 °F 34.2 °F 34.0 °F 71% 29.94 in 5.0 mi South 20.7 mph 28.8 mph 0.15 in Rain Light Rain
8:44 PM 41.0 °F 33.9 °F 35.1 °F 79% 29.96 in 6.0 mi South 12.7 mph - 0.15 in Rain Light Rain
8:48 PM 41.0 °F 35.2 °F 35.6 °F 81% 29.95 in 4.0 mi South 9.2 mph - 0.16 in Rain , Thunderstorm Rain
8:53 PM 41.0 °F 36.4 °F 35.1 °F 79% 29.94 in 4.0 mi Variable 6.9 mph - 0.17 in Rain , Thunderstorm Rain
9:07 PM 41.0 °F - 35.1 °F 79% 29.95 in 4.0 mi North - - 0.02 in Rain Light Rain
9:53 PM 39.9 °F 36.7 °F 34.0 °F 79% 29.88 in 4.0 mi Variable 4.6 mph - 0.13 in Rain Rain
10:53 PM 39.9 °F 30.8 °F 32.0 °F 73% 29.97 in 5.0 mi SW 18.4 mph 36.8 mph 0.09 in Rain Light Rain
11:14 PM 39.9 °F 30.0 °F 30.0 °F 68% 30.04 in 10.0 mi SSW 21.9 mph 35.7 mph 0.00 in Rain Light Rain
11:53 PM 39.9 °F 31.8 °F 28.9 °F 65% 30.00 in 10.0 mi SSW 15.0 mph 27.6 mph 0.00 in Rain Light Rain